Lawrence, MA

3:34 PM EDT on October 18, 2017 (GMT -0400)
Lawrence Municipal

Weather History for KLWM - November, 2012

Change the Weather History Date:

Thursday, November 22, 2012

  Actual Average Record
Temperature  
Mean Temperature 46 °F -  
Max Temperature 55 °F 46 °F 71 °F (1931)
Min Temperature 37 °F 28 °F 14 °F (1972)
Degree Days  
Heating Degree Days 19    
Moisture  
Dew Point 36 °F    
Average Humidity 76    
Maximum Humidity 93    
Minimum Humidity 47    
Precipitation  
Precipitation 0.00 in - - ()
Sea Level Pressure  
Sea Level Pressure 30.23 in    
Wind  
Wind Speed 0 mph (SSE)    
Max Wind Speed 5 mph    
Max Gust Speed -    
Visibility 8 miles    
Events      
Averages and records for this station are not official NWS values.
T = Trace of Precipitation, MM = Missing Value Source: NWS Daily Summary

Daily Weather History Graph

Daily Weather History Graph

Search for Another Location

Airport or City:

Trip Planner

Search our weather history database for the weather conditions in past years. The results will help you decide how hot, cold, wet, or windy it might be!

Date:

Astronomy

Nov. 22, 2012 Rise Set
Actual Time 6:45 AM EST 4:15 PM EST
Civil Twilight 6:14 AM EST 4:46 PM EST
Nautical Twilight 5:39 AM EST 5:21 PM EST
Astronomical Twilight 5:05 AM EST 5:55 PM EST
Moon 1:06 PM EST (11/22) 12:55 AM EST (11/22)
Length of Visible Light 10h 32m
Length of Day
9h 30m
Waxing Gibbous, 71% of the Moon is Illuminated
Nov 22
Waxing Gibbous
Nov 28
Full
Dec 6
Last Quarter
Dec 13
New
Dec 20
First Quarter

Hourly Weather History & Observations

Time (EST) Temp. Dew Point Humidity Pressure Visibility Wind Dir Wind Speed Gust Speed Precip Events Conditions
12:54 AM 39.9 °F 34.0 °F 79% 30.27 in 10.0 mi Calm Calm - N/A   Overcast
1:54 AM 41.0 °F 36.0 °F 82% 30.27 in 10.0 mi Calm Calm - N/A   Overcast
2:21 AM 41.0 °F 35.6 °F 81% 30.27 in 10.0 mi Calm Calm - N/A   Overcast
2:54 AM 41.0 °F 36.0 °F 82% 30.27 in 10.0 mi Calm Calm - N/A   Overcast
3:44 AM 42.8 °F 35.6 °F 76% 30.26 in 10.0 mi Calm Calm - N/A   Overcast
3:54 AM 41.0 °F 36.0 °F 82% 30.27 in 10.0 mi Calm Calm - N/A   Overcast
4:54 AM 41.0 °F 35.1 °F 79% 30.27 in 10.0 mi Calm Calm - N/A   Overcast
5:54 AM 39.0 °F 34.0 °F 82% 30.28 in 10.0 mi Calm Calm - N/A   Overcast
6:46 AM 37.4 °F 32.0 °F 81% 30.28 in 10.0 mi Calm Calm - N/A   Scattered Clouds
6:54 AM 37.0 °F 33.1 °F 86% 30.29 in 10.0 mi Calm Calm - N/A   Partly Cloudy
7:54 AM 37.9 °F 34.0 °F 86% 30.30 in 10.0 mi Calm Calm - N/A   Scattered Clouds
8:54 AM 42.1 °F 35.1 °F 76% 30.30 in 10.0 mi Calm Calm - N/A   Clear
9:54 AM 46.9 °F 36.0 °F 66% 30.29 in 10.0 mi Calm Calm - N/A   Clear
10:54 AM 51.1 °F 37.9 °F 61% 30.27 in 10.0 mi Calm Calm - N/A   Clear
11:54 AM 53.1 °F 37.9 °F 57% 30.25 in 10.0 mi Calm Calm - N/A   Clear
12:54 PM 54.0 °F 37.9 °F 55% 30.23 in 10.0 mi Calm Calm - N/A   Clear
1:54 PM 55.9 °F 37.0 °F 49% 30.21 in 10.0 mi Calm Calm - N/A   Clear
2:54 PM 55.9 °F 36.0 °F 47% 30.20 in 10.0 mi SSW 4.6 mph - N/A   Clear
3:54 PM 53.1 °F 37.9 °F 57% 30.21 in 10.0 mi SSE 3.5 mph - N/A   Clear
4:54 PM 50.0 °F 37.0 °F 61% 30.21 in 10.0 mi SE 3.5 mph - N/A   Clear
5:54 PM 46.9 °F 37.9 °F 71% 30.21 in 10.0 mi Variable 3.5 mph - N/A   Clear
6:54 PM 45.0 °F 39.0 °F 80% 30.21 in 10.0 mi Calm Calm - N/A   Clear
7:54 PM 43.0 °F 37.9 °F 82% 30.20 in 10.0 mi Calm Calm - N/A   Clear
8:54 PM 39.9 °F 37.0 °F 89% 30.19 in 9.0 mi Calm Calm - N/A   Clear
9:38 PM 39.2 °F 37.4 °F 93% 30.18 in 1.5 mi Calm Calm - N/A   Clear
9:48 PM 41.0 °F 37.4 °F 87% 30.18 in 3.0 mi Calm Calm - N/A   Clear
9:54 PM 39.0 °F 36.0 °F 89% 30.18 in 6.0 mi Calm Calm - N/A   Clear
10:54 PM 37.9 °F 35.1 °F 89% 30.16 in 4.0 mi Calm Calm - N/A   Clear
11:54 PM 37.9 °F 36.0 °F 93% 30.15 in 1.2 mi Calm Calm - N/A   Partly Cloudy
11:57 PM 37.4 °F 35.6 °F 93% 30.15 in 0.8 mi Calm Calm - N/A   Mist